This demonstration page uses our WeatherBlox Daily Observations layout. Learn more.

Left ArrowRight Arrow

39.08367, -84.50855

Hourly Observations for January 17, 2015

Temp ( °F °C ) Dew Point ( °F °C ) Humidity (%) Winds ( mph kmh ) Pressure ( in mb ) Visibility ( mi km ) Precip ( " mm )
12:45 am 00:45 Clear with Mist and Fog 22 -5.6 22 -5.6 100 100 Calm 30.24 1024 1.75 2.816345 0 0
12:53 am 00:53 Clear with Mist and Fog 24 -4.4 22 -5.6 91 91 Calm 30.22 1023 1 1.60934 0 0
1:00 am 01:00 Clear with Mist and Fog 25 -4 23 -5 93 93 W 3 6 30.24 1024 3 4.82802 0 0
1:53 am 01:53 Clear with Mist and Fog 23 -5 22 -5.6 96 96 Calm 30.2 1023 2.5 4.02335 0 0
2:36 am 02:36 Clear with Mist and Fog 21 -6 21 -6 100 100 Calm 30.21 1023 1.25 2.011675 0 0
2:53 am 02:53 Clear with Mist and Fog 22 -5.6 21 -6.1 96 96 Calm 30.19 1022 2 3.21868 0 0
3:23 am 03:23 Clear with Mist and Fog 22 -5.6 21 -6.1 96 96 Calm 30.21 1023 3 4.82802 0 0
3:53 am 03:53 Clear with Mist and Fog 21 -6.1 20 -6.7 96 96 Calm 30.18 1022 3 4.82802 0 0
4:53 am 04:53 Clear with Mist and Fog 20 -6.7 19 -7.2 96 96 Calm 30.16 1022 3 4.82802 0 0
5:53 am 05:53 Clear with Mist and Fog 20 -6.7 18 -7.8 92 92 Calm 30.15 1021 3 4.82802 0 0
6:53 am 06:53 Clear with Mist and Fog 22 -5.6 20 -6.7 92 92 VRB 3 6 30.14 1021 4 6.43736 0 0
7:53 am 07:53 Hazy 24 -4.4 23 -5 96 96 W 5 7 30.12 1020 6 9.65604 0 0
8:53 am 08:53 Sunny with Mist and Fog 29 -1.7 28 -2.2 96 96 SSW 3 6 30.12 1020 3 4.82802 0 0
9:53 am 09:53 Sunny 34 1.1 29 -1.7 82 82 S 10 17 30.11 1020 8 12.87472 0 0
10:53 am 10:53 Sunny 39 3.9 31 -0.6 73 73 S 12 19 30.09 1019 10 16.0934 0 0
11:53 am 11:53 Sunny 46 7.8 31 -0.6 56 56 S 12 19 30.06 1018 10 16.0934 0 0
12:53 pm 12:53 Sunny 50 10 30 -1.1 46 46 SSW 16 26 30 1016 10 16.0934 0 0
1:53 pm 13:53 Sunny 51 10.6 30 -1.1 44 44 SSW 16 26 29.96 1015 10 16.0934 0 0
2:53 pm 14:53 Sunny 52 11.1 28 -2.2 40 40 SSW 21 33 29.92 1013 10 16.0934 0 0
3:53 pm 15:53 Sunny 53 11.7 27 -2.8 37 37 SSW 20 31 29.9 1013 10 16.0934 0 0
4:53 pm 16:53 Sunny 50 10 27 -2.8 41 41 SSW 16 26 29.89 1012 10 16.0934 0 0
5:53 pm 17:53 Clear 45 7.2 27 -2.8 49 49 SSW 8 13 29.9 1012 10 16.0934 0 0
6:53 pm 18:53 Clear 47 8.3 27 -2.8 46 46 S 15 24 29.88 1012 10 16.0934 0 0
7:53 pm 19:53 Clear 45 7.2 27 -2.8 49 49 SSW 13 20 29.87 1011 10 16.0934 0 0
8:53 pm 20:53 Clear 48 8.9 27 -2.8 44 44 SSW 14 22 29.86 1011 10 16.0934 0 0
9:53 pm 21:53 Clear 47 8.3 26 -3.3 44 44 SSW 15 24 29.86 1011 10 16.0934 0 0
10:53 pm 22:53 Cloudy 48 8.9 26 -3.3 42 42 SSW 16 26 29.85 1011 10 16.0934 0 0
11:53 pm 23:53 Cloudy 49 9.4 27 -2.8 43 43 SSW 17 28 29.83 1010 10 16.0934 0 0

Powered by AerisWeather